Location: Arbon
(43.0005°N, 0.7472°E)
Time: 21:46:09
(UTC+00:00)

Altair - Pass Details

Date: 01 December 2020
Orbit: 1501 x 1682 km, 47.2° (Epoch: 26 January)

Event Time Altitude Azimuth Distance (km) Brightness Sun altitude
Rises 23:30:03 0° 285° (WNW) 4,673 - -68.7°
Reaches altitude 10° 23:33:08 10° 287° (WNW) 3,676 - -68.8°
Maximum altitude 23:42:22 74° 13° (NNE) 1,555 - -69.0°
Drops below altitude 10° 23:51:34 10° 98° (E) 3,665 - -69.0°
Sets 23:54:38 0° 100° (E) 4,658 - -68.9°
